Regional Weather Roundup
Issued by NWS Sterling, VA

Home | Current Version | Previous Version | Text Only | Print | Product List | Glossary On
Versions: 1 2 3 4 5 6 7 8 9 10 11 12 13 14 15 16 17 18 19 20 21 22 23 24 25 26 27
000
ASUS41 KLWX 281611
RWRLWX

REGIONAL WEATHER ROUNDUP
NATIONAL WEATHER SERVICE BALTIMORE MD/WASHINGTON DC
1200 PM EDT SUN MAY 28 2017

Note: "FAIR" indicates few or no clouds below 12,000 feet
with no significant weather and/or obstructions to visibility.
 TC=TEMPERATURE CELSIUS

 * =Non NWS site. Station does not report precipitation (e.g. rain,
    snow, etc.), thunder, or fog.

DCZ001-MDZ009-015-VAZ040>042-051-053>054-281700-
WASHINGTON METRO

CITY           SKY/WX    TMP DP  RH WIND       PRES   REMARKS
WASHINGTON NAT CLOUDY    73  61  65 E10       29.88S
DULLES         PTSUNNY   74  60  61 SE8       29.88S
ANDREWS AFB    CLOUDY    72  60  67 E8        29.88S
FT BELVOIR     PTSUNNY   72  60  66 SE5       29.87S
QUANTICO       CLOUDY    73  65  75 NE3       29.87S
COLLEGE PARK*  CLOUDY    74  61  61 SE6       29.88F
LEESBURG*      CLOUDY    72  63  73 E7        29.90S
MANASSAS*      LGT RAIN  69  64  84 SE3       29.88S
GAITHERSBURG*  PTSUNNY   75  62  64 VRB5      29.90S

$$

MDZ006>007-011-014-281700-
BALTIMORE METRO

CITY           SKY/WX    TMP DP  RH WIND       PRES   REMARKS
BWI AIRPORT    CLOUDY    73  61  65 SE12      29.89S
MD SCIENCE CTR   N/A     74  61  63 MISG      29.92R
MARTIN STATE   PTSUNNY   73  64  73 E8        29.92S
ANNAPOLIS      CLOUDY    73  63  70 SE8       29.89S
FORT MEADE*    MOSUNNY   72  59  64 E12       29.92S

$$

MDZ012-015-019>023-281700-
MARYLAND EASTERN SHORE

CITY           SKY/WX    TMP DP  RH WIND       PRES   REMARKS
OCEAN CITY     CLOUDY    67  61  81 E9        29.92R
SALISBURY      PTSUNNY   74  61  63 E12       29.90R
BAY BRIDGE AP* CLOUDY    77  61  57 SE10      29.89S
CAMBRIDGE*     CLOUDY    75  59  57 E13       29.89S
EASTON*        PTSUNNY   77  59  53 E10       29.93S

$$

MDZ017>025-281700-
SOUTHERN MARYLAND

CITY           SKY/WX    TMP DP  RH WIND       PRES   REMARKS
PATUXENT RIVER CLOUDY    71  65  81 E8        29.88S
ST INIGOES     PTSUNNY   72  62  71 E9        29.86F
LEONARDTOWN*   CLOUDY    70  61  73 E8        29.90S

$$

MDZ003>005-281700-
NORTH CENTRAL MARYLAND

CITY           SKY/WX    TMP DP  RH WIND       PRES   REMARKS
FREDERICK*     PTSUNNY   75  66  73 SE8       29.92R
HAGERSTOWN APT CLOUDY    68  63  84 SW3       29.89F
WESTMINSTER*   CLOUDY    75  59  57 S5        29.91R

$$

MDZ501>502-281700-
WESTERN MARYLAND

CITY           SKY/WX    TMP DP  RH WIND       PRES   REMARKS
OAKLAND*         N/A     61  61 100 E6        29.92S FOG
CUMBERLAND*    CLOUDY    64  64 100 CALM      29.92F

$$

VAZ025>031-281700-
SHENANDOAH VALLEY

CITY           SKY/WX    TMP DP  RH WIND       PRES   REMARKS
WINCHESTER*    CLOUDY    70  61  73 SE9       29.88S
FRONT ROYAL*   CLOUDY    72  61  68 E7        29.86S
LURAY*         CLOUDY    72  64  78 N5        29.86F
NEW MARKET*    CLOUDY    69  64  84 NE6       29.86F
STAUNTON*      CLOUDY    69  63  82 N5        29.89F
WAYNESBORO*    CLOUDY    68  65  92 CALM      29.88F

$$

WVZ021-048>050-054>055-281700-
EASTERN WEST VIRGINIA PANHANDLE

CITY           SKY/WX    TMP DP  RH WIND       PRES   REMARKS
MARTINSBURG    CLOUDY    70  62  76 VRB5      29.88S
PETERSBURG*    CLOUDY    70  66  88 CALM      29.87F

$$

VAZ036>039-050-281700-
CENTRAL FOOTHILLS

CITY           SKY/WX    TMP DP  RH WIND       PRES   REMARKS
CHARLOTTESVILL CLOUDY    69  64  84 E5        29.88R
CULPEPER*      CLOUDY    72  64  76 NE5       29.88F
ORANGE*        CLOUDY    68  63  83 CALM      29.88R
GORDONSVILLE*  CLOUDY    68  64  88 CALM      29.87R
WARRENTON*     CLOUDY    73  60  64 NE6       29.87S

$$

VAZ055>057-281700-
NORTH AND CENTRAL PIEDMONT

CITY           SKY/WX    TMP DP  RH WIND       PRES   REMARKS
FREDERICKSBRG* CLOUDY    73  65  76 NE5       29.86S
STAFFORD*      CLOUDY    71  65  80 E10       29.91F

$$

NCZ024-NYZ072-PAZ021-071-VAZ022-071-281700-
OTHER REGIONAL OBSERVATIONS

CITY           SKY/WX    TMP DP  RH WIND       PRES   REMARKS
NEW YORK CITY  CLOUDY    71  58  63 MISG      29.97R
PHILADELPHIA   PTSUNNY   76  61  59 SE9       29.92R
PITTSBURGH     CLOUDY    70  65  84 SW9       29.82S
ROANOKE        MOSUNNY   77  63  61 VRB6      29.87F
RICHMOND       LGT RAIN  72  67  84 CALM      29.87R
RALEIGH        CLOUDY    81  66  60 SW15G23   29.86F

$$

ANZ530>537-281700-
MARINE OBSERVATIONS

STATION/POSITION TIME  TEMP    WIND        PRES
                       AIR SEA DIR/SP/G
                 (UTC) (F)     (DEG/KT/KT) (MB)
THOMAS PT LIGHT  1600   70 66  100/  4/  6   N/A
BALT KEY BRIDGE  1536   67     130/  3/  5 1012.5S
COVE POINT       1536   69     170/  9/ 10 1012.8R
LEWISETTA        1536   69 70  100/ 14/ 16 1011.2F
SOLOMONS ISLAND  1536   70 68  100/  9/ 11   N/A
PINEY POINT      1548          120/ 12/ 14   N/A

$$





USA.gov is the U.S. government's official web portal to all federal, state and local government web resources and services.